Preview of NWS' New Version of Forecast
This preview is not operational and should not be used for support decisions.

Regional Weather Roundup (RWR)

Issued by National Weather Service (NWS)

                            
000
ASUS43 KBIS 200010
RWRND 

NORTH DAKOTA REGIONAL WEATHER ROUNDUP
NATIONAL WEATHER SERVICE BISMARCK ND
600 PM CST TUE FEB 19 2019

NOTE: "FAIR" INDICATES FEW OR NO CLOUDS BELOW 12,000 FEET WITH NO
SIGNIFICANT WEATHER AND/OR OBSTRUCTIONS TO VISIBILITY.


NDZ001>003-009>011-017-200100-
NORTHWEST NORTH DAKOTA
  
CITY           SKY/WX    TMP DP  RH WIND       PRES   REMARKS
WILLISTON      CLEAR     10  -1  61 S6        29.95F WCI   0          
6HR MIN TEMP:   1; 6HR MAX TEMP:  11;                                

MINOT          CLEAR      6  -1  73 SE7       30.02F WCI  -6          
MINOT AFB      CLEAR      5  -2  75 S14         N/A  WCI -13          
$$
 
NDZ018>021-031>035-040>046-200100-
SOUTHWEST NORTH DAKOTA
  
CITY           SKY/WX    TMP DP  RH WIND       PRES   REMARKS
BISMARCK       CLEAR      0  -5  79 SE6       30.10F WCI -12          
6HR MIN TEMP:  -3; 6HR MAX TEMP:   4;                                

DICKINSON      CLEAR      2  -4  76 S5        29.92F WCI  -8          
GARRISON         N/A      0  -4  83 S7        30.02F WCI -13          
6HR MIN TEMP:  -2; 6HR MAX TEMP:   7;                                

HETTINGER ARPT PTCLDY    -1  -6  79 SE9       29.95F WCI -16          
$$
 
NDZ004>008-012>016-024-026-027-054-200100-
NORTHEAST NORTH DAKOTA
  
CITY           SKY/WX    TMP DP  RH WIND       PRES   REMARKS
GRAND FORKS    CLEAR      2  -4  76 S10       30.24F WCI -14          
GRND FRKS AFB  CLEAR      3  -3  77 S14       30.22F WCI -15          
DEVILS LAKE    CLEAR      5   0  79 S9        30.13F WCI  -9          
$$
 
NDZ022-023-025-028>030-036>039-047>053-200100-
SOUTHEAST NORTH DAKOTA
  
CITY           SKY/WX    TMP DP  RH WIND       PRES   REMARKS
FARGO          CLEAR      7   2  80 SE7       30.26F WCI  -5          
6HR MIN TEMP:   4; 6HR MAX TEMP:   8; 6HR PCP:  0.01;                

JAMESTOWN      CLEAR      3   0  87 S8        30.15F WCI -10          
$$